Location: Bukit Lungun
(2.6833°N, 113.9667°E)
Time: 11:43:34
(UTC+00:00)

SL-16 R/B - Pass Details

Date: 02 March 2021
Orbit: 843 x 845 km, 71.0° (Epoch: 20 April)

Event Time Altitude Azimuth Distance (km) Brightness Sun altitude
Rises 22:00:52 0° 336° (NNW) 3,390 5.0 -9.1°
Reaches altitude 10° 22:03:20 10° 332° (NNW) 2,457 4.3 -8.5°
Maximum altitude 22:08:51 56° 255° (WSW) 996 2.3 -7.1°
Drops below altitude 10° 22:14:23 10° 177° (S) 2,463 4.8 -5.7°
Sets 22:16:52 0° 173° (S) 3,399 5.5 -5.1°
